Theta_e
334 343 342 329 309 308 302 303 311 310 310 316 317 314 315 318 315 310 336 340 342 345 346 345 343 346 347 347 347 347 347 348 346 346 346 346 346 346 346 346 346 346 343 343 341 339 339 338 337
330 332 329 321 305 299 301 308 306 310 315 318 319 318 317 316 327 329 333 339 344 346 346 344 341 346 348 347 349 348 347 348 348 346 346 344 344 346 345 344 345 344 342 340 339 338 339 338 337
329 324 318 311 305 299 300 307 309 312 316 317 319 323 321 322 330 332 339 341 345 346 346 343 342 347 348 349 348 347 347 347 347 346 345 344 342 342 344 345 344 343 340 341 337 337 338 338 337
312 314 312 305 301 305 306 309 312 312 314 318 321 319 326 333 332 336 340 341 343 345 346 341 343 347 348 348 347 346 346 346 346 346 346 342 340 341 342 342 342 341 340 339 336 335 335 338 338
313 310 305 301 303 305 309 312 314 313 314 318 322 318 322 330 338 337 337 341 342 343 344 343 342 346 347 347 347 346 346 346 345 345 344 343 342 340 340 340 340 339 338 336 335 333 332 332 333
306 306 300 298 302 305 309 311 312 315 316 320 319 321 324 333 335 336 339 342 343 342 344 343 337 340 344 345 345 345 345 344 344 344 343 342 341 340 339 338 336 336 335 333 332 331 329 329 328
307 301 300 301 302 303 307 312 310 314 315 315 323 319 325 329 335 336 338 341 342 343 343 341 338 340 337 339 340 342 343 342 342 342 342 340 339 338 337 336 336 334 333 332 330 329 328 327 327
312 303 300 302 299 301 310 309 313 314 314 322 325 317 321 329 336 337 336 338 338 341 341 340 337 339 344 345 333 336 337 338 338 337 334 332 333 333 332 332 335 334 333 331 330 328 328 328 328
307 299 296 301 301 304 307 307 310 314 315 320 323 323 329 334 335 333 332 333 335 338 340 340 338 334 338 343 337 332 332 332 332 331 328 328 334 333 331 329 333 335 333 331 329 328 327 326 325
302 300 299 307 307 305 304 303 309 311 315 317 322 327 332 333 331 329 329 328 331 334 336 338 339 337 337 338 342 342 340 338 334 332 332 332 333 333 331 327 328 332 331 331 329 329 326 324 326
304 298 303 303 306 304 302 302 305 309 310 316 317 324 328 330 329 328 329 331 330 334 336 336 337 338 337 338 341 341 340 338 334 333 333 333 332 332 332 332 331 332 324 329 330 329 328 325 327
299 304 304 304 306 305 303 304 302 308 313 310 323 328 329 327 327 328 329 330 331 332 333 334 336 336 337 338 339 340 339 336 332 333 334 333 333 333 332 332 332 332 331 331 332 331 329 328 328
301 302 305 306 305 305 306 303 302 304 308 311 325 327 327 327 327 330 331 332 331 330 331 333 335 334 334 334 336 338 338 335 333 334 334 333 332 332 332 332 332 332 332 331 331 330 329 327 327
303 305 305 305 305 306 302 302 300 305 309 317 321 324 326 327 327 329 329 329 329 330 330 332 333 335 335 334 334 337 338 335 334 334 333 332 331 331 330 330 331 331 332 331 330 330 328 329 328
303 299 302 302 303 302 304 301 299 303 313 319 320 323 325 327 328 328 330 329 330 330 330 330 332 333 334 336 333 337 338 335 334 334 334 332 331 330 330 330 329 329 330 329 330 329 329 328 328
297 298 292 299 303 301 302 296 303 304 312 317 320 323 321 324 327 330 331 330 331 330 330 331 331 331 333 336 334 336 338 336 335 335 335 334 333 332 331 331 330 331 330 330 329 329 328 328 324
289 286 290 294 302 299 299 296 300 303 301 311 318 320 321 322 326 329 330 329 330 330 330 330 331 331 332 334 336 337 338 337 337 337 336 335 332 333 332 332 332 332 331 330 329 328 325 324 322
286 287 290 290 293 299 296 296 301 303 301 301 308 319 320 321 321 326 328 330 331 331 330 332 331 332 333 334 334 335 336 337 338 337 337 334 333 331 330 329 329 330 328 325 325 325 325 324 323
291 290 289 291 294 292 291 295 299 301 302 300 303 304 309 311 309 314 317 322 329 332 332 330 329 330 332 331 331 333 331 333 334 335 335 334 334 332 331 330 329 329 326 326 326 324 323 323 324
291 288 287 290 293 292 288 290 297 299 300 298 297 302 304 303 305 304 310 312 309 312 316 326 330 330 330 331 331 332 332 335 334 335 335 335 334 333 332 331 329 329 327 326 326 324 323 324 325
289 288 287 287 289 291 290 289 293 297 298 295 295 296 298 302 302 300 298 301 303 301 304 310 317 326 331 332 332 333 335 334 334 332 332 333 333 333 332 331 331 330 328 326 327 325 324 323 325
285 292 290 288 288 284 288 285 289 295 290 293 295 296 295 296 297 297 297 295 295 297 301 305 311 317 324 332 330 329 331 329 331 331 332 332 332 332 331 331 330 329 328 327 328 327 326 325 323
287 292 291 289 286 285 285 285 285 294 288 291 294 294 294 293 293 293 293 294 293 296 300 302 306 308 311 315 321 331 331 332 333 332 331 331 332 332 331 331 330 329 329 329 328 328 327 326 325
292 289 288 288 285 279 285 284 281 286 291 291 294 292 292 291 291 291 291 293 293 295 298 299 300 300 306 309 311 313 319 323 329 330 331 332 333 330 325 327 331 332 330 329 329 329 328 327 327
290 286 279 278 278 278 282 281 283 288 289 291 293 290 289 290 290 289 289 290 290 291 293 296 296 295 299 301 302 305 308 315 315 319 324 328 323 317 314 316 315 315 315 316 318 317 315 314 315
288 286 280 273 275 277 281 279 283 289 289 289 289 289 288 288 288 288 288 288 288 289 291 293 294 295 297 299 298 299 301 304 305 306 308 308 308 308 309 310 311 311 311 312 311 309 309 307 307
285 283 286 279 276 279 280 282 287 289 288 288 287 288 287 286 286 287 287 287 287 288 289 291 292 294 295 298 298 296 296 298 298 299 300 301 302 303 303 304 303 303 303 303 302 302 301 300 301
288 289 281 282 275 274 277 279 282 286 287 287 287 286 286 286 286 286 286 286 287 287 288 290 291 292 293 295 296 296 295 295 294 295 295 296 297 299 299 299 299 300 299 300 300 298 297 295 295
285 284 284 283 281 276 275 279 288 287 288 288 288 287 287 286 286 285 285 285 286 287 287 287 289 290 292 293 293 294 293 293 292 292 291 292 293 294 295 295 296 296 295 296 293 292 291 290 289
287 286 285 281 277 279 279 280 290 289 290 290 289 288 287 286 285 285 285 285 285 286 286 287 288 288 289 291 291 290 290 290 289 289 289 290 289 290 291 291 291 291 291 290 289 288 288 287 287
Wind_Speed
5 9 2 3 7 7 13 10 4 6 8 7 3 9 12 6 7 1 6 5 20 21 19 19 17 18 17 17 16 15 14 16 16 16 18 17 16 15 14 16 15 15 18 18 18 14 13 12 14
6 4 3 3 8 12 12 12 13 12 3 4 5 6 6 9 3 7 11 9 21 20 19 18 16 18 17 17 14 15 15 16 16 16 18 16 15 15 17 17 15 15 16 16 16 13 12 12 13
7 5 3 5 10 13 11 12 14 7 5 7 5 2 2 4 3 11 5 18 22 19 18 17 16 17 17 17 16 14 16 15 15 17 18 16 15 15 15 15 15 15 16 15 14 13 13 13 14
5 5 3 10 14 14 10 4 5 9 3 6 5 6 4 3 4 6 15 21 20 19 17 18 17 16 16 17 17 16 17 16 18 17 16 16 14 14 13 14 14 14 16 15 13 13 13 13 12
3 4 8 8 17 6 10 7 5 7 7 7 8 7 4 3 3 12 17 17 19 18 17 18 16 15 16 16 17 16 15 15 15 14 15 15 14 13 12 13 14 14 15 13 12 12 13 13 11
2 4 9 16 15 12 12 9 10 8 7 7 6 9 5 3 10 14 17 17 17 17 18 17 13 12 13 16 16 15 16 14 13 14 15 14 14 13 13 12 12 13 14 12 12 12 12 11 10
10 4 16 14 18 16 12 8 11 11 9 7 4 7 6 7 10 13 17 17 16 17 16 16 16 15 10 10 11 12 13 13 12 13 13 12 13 13 13 13 12 12 12 11 11 11 10 10 9
5 4 13 16 14 19 16 6 5 12 9 5 2 6 7 12 13 13 15 17 15 15 15 16 15 16 15 14 9 11 11 12 11 10 10 10 10 10 11 11 11 11 11 10 10 9 9 8 7
1 5 10 22 20 14 4 9 4 1 6 5 4 2 5 23 15 14 16 15 13 10 13 14 15 14 14 14 11 11 11 10 10 10 9 11 9 11 12 10 10 10 9 8 8 8 7 6 6
5 10 12 18 12 11 3 5 6 6 10 7 5 7 15 21 17 16 19 17 15 13 14 14 14 14 13 10 14 13 11 9 8 9 11 7 8 8 7 8 9 9 7 6 7 7 5 5 1
7 2 8 7 4 2 7 7 3 8 11 12 14 15 17 19 16 15 16 19 15 15 11 14 14 13 14 10 8 6 6 6 7 10 9 7 6 6 6 5 6 6 6 5 6 5 2 1 1
8 5 2 3 4 4 5 4 6 10 4 1 7 18 19 19 17 17 14 15 15 14 14 14 13 12 12 9 8 9 7 7 6 8 9 7 5 6 5 4 5 4 4 3 2 1 1 1 1
15 10 8 4 3 4 3 4 9 9 4 2 11 16 17 16 16 16 13 11 14 16 14 15 12 11 11 11 7 8 8 7 8 8 8 7 6 5 5 4 4 4 3 3 2 2 2 2 3
14 11 13 6 5 5 4 0 3 8 2 6 9 11 12 16 17 14 15 15 15 14 15 15 14 12 11 11 11 8 7 8 8 7 8 9 6 5 5 4 5 4 4 3 2 2 2 2 3
11 14 8 8 5 5 5 8 8 2 4 6 8 7 14 16 16 18 16 16 15 13 12 15 16 15 14 13 12 9 8 8 7 7 9 9 7 7 6 4 4 4 4 4 3 3 2 3 3
8 14 10 9 14 1 4 15 7 7 5 10 13 15 11 12 16 15 15 14 14 13 13 15 12 15 13 13 10 9 9 8 8 7 8 10 9 8 7 5 4 4 4 4 4 3 3 2 4
3 3 8 7 11 6 7 3 5 7 3 6 11 11 11 11 13 13 13 12 12 13 13 14 13 14 13 12 10 11 11 9 8 8 8 10 8 9 7 6 5 6 5 5 4 4 2 3 4
9 5 4 5 3 10 11 10 6 6 7 2 3 8 9 10 7 7 8 9 12 11 12 13 12 12 13 8 9 8 8 9 8 8 7 10 8 9 7 5 5 4 4 4 5 5 5 4 3
14 13 6 6 4 4 2 12 14 9 7 5 3 5 7 8 5 6 6 7 4 7 8 10 11 10 8 6 6 7 7 7 6 6 9 9 8 8 8 5 6 7 7 7 6 4 5 4 3
17 18 5 6 5 3 2 5 10 9 7 8 9 0 6 7 8 8 8 10 11 9 8 1 8 10 9 6 6 6 7 7 7 7 8 9 9 9 8 7 7 8 5 6 7 7 3 4 4
15 13 11 6 6 2 2 3 11 7 2 10 11 9 10 7 8 6 7 10 10 9 8 6 6 5 9 11 7 7 7 5 6 5 5 7 9 10 10 10 7 7 6 6 7 7 8 6 4
10 10 14 12 7 3 4 3 9 8 5 4 5 9 9 7 7 8 8 10 11 10 9 8 6 7 3 7 9 11 9 9 8 7 4 5 7 7 8 7 7 7 6 7 7 6 7 6 6
9 11 12 9 5 4 4 2 5 10 6 4 1 7 8 7 7 9 10 12 10 9 7 7 7 7 7 6 5 8 8 6 6 5 6 4 3 4 4 5 6 6 5 6 7 7 7 6 6
19 19 14 6 3 3 6 3 4 6 1 5 4 6 6 5 6 7 7 7 8 7 7 8 7 8 7 6 6 7 5 3 4 4 4 3 4 3 3 3 3 6 5 4 4 5 6 6 7
13 10 5 4 3 2 1 3 6 4 2 2 3 9 5 2 5 6 6 6 9 10 9 7 9 9 8 8 8 7 6 3 4 3 0 4 3 1 4 4 4 4 4 4 3 4 3 2 1
13 7 3 6 7 6 3 5 5 4 1 3 5 7 5 3 5 5 6 7 9 8 9 10 9 8 8 7 8 7 8 5 4 6 4 4 4 4 4 5 5 6 5 5 5 4 4 5 5
5 5 3 6 3 4 5 2 2 2 4 5 5 6 5 4 4 4 7 9 8 9 10 9 7 7 8 8 7 8 8 8 7 7 6 4 5 4 5 6 6 6 6 6 6 5 6 6 6
5 6 2 1 6 4 4 3 3 1 2 5 4 4 5 5 4 6 7 8 7 8 6 8 7 7 7 7 6 6 8 8 7 7 7 7 6 5 6 7 7 7 8 7 7 6 8 9 6
5 5 4 3 3 3 5 3 3 3 1 5 6 4 3 4 5 5 5 6 5 6 6 6 7 7 7 7 7 7 8 8 8 8 7 7 7 7 7 8 8 8 9 9 9 11 8 10 9
3 4 2 2 2 3 3 3 3 4 5 5 6 6 5 4 4 4 4 4 5 6 6 6 5 6 6 6 6 8 8 8 9 9 8 8 8 8 9 8 10 9 10 10 11 11 9 9 9
Wind_Direction
198 176 191 209 207 238 228 217 254 180 202 196 183 203 210 252 197 360 140 141 147 152 145 150 148 146 144 143 145 148 147 143 140 132 125 116 114 108 113 113 106 100 102 101 95 93 94 93 99
202 165 223 216 239 212 221 222 214 220 150 149 178 191 211 198 79 109 142 169 158 148 150 149 148 148 145 146 146 148 151 143 141 132 124 122 118 110 106 113 111 107 107 103 101 98 99 103 108
194 232 244 228 227 225 232 207 229 207 198 206 174 261 160 117 88 157 128 164 151 149 151 140 148 148 145 144 133 137 147 142 141 136 127 122 117 116 112 113 113 114 109 104 104 98 94 97 110
226 201 216 235 214 225 230 235 221 185 157 201 203 161 128 31 155 160 151 156 151 148 147 140 147 148 145 138 136 133 131 131 133 132 127 122 117 115 116 114 111 112 109 104 104 99 92 91 105
230 245 217 225 228 235 230 245 244 183 163 172 195 160 124 57 122 139 152 157 151 149 145 150 146 146 139 141 140 134 130 129 127 126 126 124 123 116 111 120 112 103 100 106 107 100 95 93 93
211 268 223 215 220 234 251 247 240 230 174 151 183 156 106 105 139 148 154 153 149 149 148 145 141 140 139 144 144 141 134 127 126 127 128 130 126 116 105 99 112 105 107 115 110 103 96 92 90
231 192 228 234 222 228 236 230 218 216 176 171 164 160 111 150 142 149 159 150 149 153 149 151 154 148 128 140 138 133 129 129 128 129 131 132 135 128 113 105 108 118 119 116 110 104 102 98 95
210 226 219 215 212 227 226 223 243 218 198 100 193 178 169 157 148 148 155 153 149 159 152 154 154 163 157 153 135 131 128 128 126 125 121 113 127 118 120 122 125 128 127 121 112 108 106 104 97
112 221 220 214 215 211 161 216 165 327 166 196 157 37 115 138 143 149 152 157 156 159 154 154 156 162 167 158 147 132 125 122 121 128 127 148 142 146 154 105 134 131 130 127 122 119 114 114 107
150 222 199 228 218 224 340 272 204 202 181 186 146 101 136 143 150 159 163 163 166 162 159 158 162 162 163 162 164 156 148 154 151 151 159 158 153 149 137 142 141 135 135 134 133 126 132 216 152
159 273 177 272 165 137 161 249 236 223 213 200 190 152 157 153 155 172 171 172 167 164 159 165 161 165 166 156 169 161 161 154 154 155 158 149 146 154 163 147 159 147 181 163 177 172 190 161 297
174 222 192 226 36 290 170 319 245 222 214 354 156 159 160 159 167 174 166 171 169 169 162 166 164 166 166 163 171 165 163 162 162 165 164 161 163 167 171 178 169 180 185 182 208 209 273 255 283
210 188 197 210 20 306 257 220 275 240 241 137 144 157 155 166 172 179 165 158 158 165 171 170 166 166 164 169 171 173 172 172 166 167 174 173 171 173 177 184 192 202 196 222 222 261 276 291 298
190 174 175 185 212 307 249 347 3 230 189 160 168 145 153 182 171 174 170 162 167 168 170 172 175 172 167 171 174 181 177 171 173 172 175 177 176 180 187 184 195 200 208 214 254 307 298 297 294
188 188 156 169 198 232 312 228 216 310 159 160 153 179 188 182 177 181 177 173 170 174 167 182 184 184 182 177 177 187 182 180 184 183 184 188 192 192 199 196 192 200 201 217 229 237 251 259 252
174 202 174 162 172 169 66 207 164 323 170 184 175 186 182 175 190 187 179 174 174 170 176 181 187 187 189 189 178 191 185 188 190 191 188 194 202 204 204 210 215 202 203 217 230 239 246 278 304
6 176 151 148 192 129 180 191 39 9 350 185 177 180 178 178 193 179 167 166 177 180 178 187 184 189 189 200 186 195 195 198 198 198 199 194 199 207 214 214 211 200 208 213 228 232 243 264 293
145 118 138 131 46 191 169 239 272 350 16 270 176 201 177 156 183 167 166 177 183 182 185 190 189 188 191 186 202 198 198 205 209 209 209 198 199 198 202 214 211 197 202 200 207 222 205 231 253
129 123 124 94 62 78 48 215 244 298 313 14 226 177 158 129 83 72 82 65 162 183 187 187 192 194 183 178 192 197 200 207 203 217 215 205 203 199 201 208 209 199 206 209 216 223 230 234 236
133 126 113 79 108 90 83 256 239 272 289 16 359 112 131 125 90 61 71 73 57 56 31 346 200 193 196 187 198 206 202 214 210 202 201 202 196 195 196 196 203 201 207 216 216 209 221 237 194
122 156 155 136 135 69 159 226 213 250 218 43 44 60 58 105 113 87 83 78 68 43 27 13 342 287 192 198 200 203 200 206 194 188 196 203 195 193 196 200 197 197 196 210 211 207 210 235 205
108 137 133 135 167 173 270 165 203 191 75 55 38 46 63 45 65 63 53 63 49 34 21 16 13 16 8 212 203 208 213 207 207 207 200 201 208 206 200 202 205 199 200 211 215 211 219 215 235
128 143 116 108 114 161 180 233 116 178 137 177 232 60 64 49 39 50 49 52 52 38 32 21 13 28 17 30 2 227 222 253 221 205 180 178 181 195 192 210 215 224 215 219 210 213 215 217 228
118 100 80 107 128 176 166 243 125 132 220 185 153 83 70 59 62 57 56 61 65 55 47 47 37 19 15 33 30 38 63 337 227 210 220 196 206 145 84 65 247 239 229 228 228 232 236 238 244
134 132 138 149 174 114 133 208 64 86 23 201 172 130 109 80 67 57 55 53 51 39 37 40 40 28 14 32 40 42 32 31 24 17 46 167 133 86 44 46 51 53 35 38 53 86 84 39 75
162 168 195 151 166 125 131 210 110 59 108 81 87 115 119 60 80 70 51 50 52 43 35 41 37 32 24 32 38 40 38 49 50 39 45 52 72 68 58 66 60 55 55 53 55 38 61 73 51
164 203 27 108 49 148 155 112 178 186 85 87 103 134 134 97 40 51 54 46 40 38 37 33 34 39 32 30 39 43 43 46 50 48 50 52 56 73 71 72 74 63 62 66 70 80 76 69 74
175 145 175 62 144 122 154 153 91 111 53 134 141 133 125 116 88 40 37 43 39 37 32 40 37 44 38 46 41 49 58 55 53 52 55 54 53 65 82 81 79 77 71 77 84 76 75 77 60
140 183 42 79 16 111 144 98 15 10 325 124 127 136 138 109 89 73 63 61 51 44 34 42 39 40 44 46 53 57 55 63 63 61 52 56 58 56 72 76 78 77 77 75 82 79 73 76 73
336 172 207 243 153 48 42 93 41 40 68 109 139 149 136 110 108 101 96 77 58 54 38 44 41 49 39 45 57 61 66 67 69 65 62 56 67 64 64 70 77 73 78 78 79 79 72 77 77